EJU66 EDDL-EGKK

Flight info

Callsign EJU66
Flight time N/A
Altitude 32000
Route MODRU2T/23L MODRU Z717 MAS UM617 SOGRI DCT DENUT L610 TEBRA
Aircraft A20N/M-SDE2E3FGHIJ1RWXYZ/LB1

Departure

Time 2026-05-05 10:52
Airport Düsseldorf Airport (EDDL)

Arrival

Time N/A
Airport London Gatwick Airport (EGKK)
Time Latitude Longitude Altitude Speed Heading
2026-05-05 10:39 51.27943 6.76179 131 ft 0 kts 91°
2026-05-05 10:44 51.27943 6.76156 127 ft 2 kts 88°
2026-05-05 10:44 51.27942 6.76129 128 ft 2 kts 83°
2026-05-05 10:45 51.27939 6.76104 129 ft 2 kts 75°
2026-05-05 10:45 51.27934 6.76079 128 ft 2 kts 60°
2026-05-05 10:45 51.27908 6.76047 128 ft 2 kts
2026-05-05 10:46 51.27900 6.76046 126 ft 1 kts
2026-05-05 10:46 51.27899 6.76046 126 ft 0 kts
2026-05-05 10:47 51.27900 6.76046 126 ft 1 kts
2026-05-05 10:47 51.27961 6.76046 131 ft 17 kts 360°
2026-05-05 10:48 51.28102 6.76031 132 ft 19 kts 338°
2026-05-05 10:48 51.28166 6.76106 133 ft 10 kts 48°
2026-05-05 10:48 51.28207 6.76185 133 ft 8 kts 56°
2026-05-05 10:48 51.28250 6.76274 134 ft 15 kts 51°
2026-05-05 10:49 51.28335 6.76447 134 ft 25 kts 55°
2026-05-05 10:49 51.28456 6.76706 136 ft 33 kts 51°
2026-05-05 10:49 51.28595 6.76999 138 ft 33 kts 52°
2026-05-05 10:49 51.28735 6.77291 140 ft 33 kts 52°
2026-05-05 10:50 51.28875 6.77582 141 ft 33 kts 53°
2026-05-05 10:50 51.29014 6.77874 143 ft 33 kts 52°
2026-05-05 10:50 51.29153 6.78165 145 ft 33 kts 51°
2026-05-05 10:50 51.29291 6.78457 146 ft 33 kts 52°
2026-05-05 10:51 51.29411 6.78571 148 ft 16 kts 354°
2026-05-05 10:51 51.29508 6.78519 149 ft 14 kts 299°
2026-05-05 10:51 51.29478 6.78383 148 ft 11 kts 233°
2026-05-05 10:51 51.29370 6.78154 147 ft 59 kts 233°
2026-05-05 10:52 51.28971 6.77325 140 ft 126 kts 232°
2026-05-05 10:52 51.28333 6.75982 211 ft 171 kts 233°
2026-05-05 10:52 51.27579 6.74402 724 ft 181 kts 234°
2026-05-05 10:52 51.26840 6.72804 1578 ft 178 kts 234°
2026-05-05 10:53 51.26097 6.71197 2325 ft 185 kts 234°
2026-05-05 10:53 51.25305 6.69489 2821 ft 199 kts 234°
2026-05-05 10:53 51.24448 6.67647 3268 ft 214 kts 234°
2026-05-05 10:53 51.23624 6.65631 3872 ft 220 kts 251°
2026-05-05 10:54 51.23625 6.63255 4624 ft 217 kts 292°
2026-05-05 10:54 51.24554 6.61332 5184 ft 229 kts 317°
2026-05-05 10:54 51.25803 6.59667 5656 ft 246 kts 321°
2026-05-05 10:54 51.27222 6.57919 6155 ft 263 kts 322°
2026-05-05 10:55 51.28711 6.56110 6814 ft 272 kts 322°
2026-05-05 10:55 51.30200 6.54284 7608 ft 275 kts 321°
2026-05-05 10:55 51.31721 6.52392 8417 ft 278 kts 321°
2026-05-05 10:55 51.33251 6.50457 9201 ft 282 kts 321°
2026-05-05 10:56 51.34791 6.48492 9965 ft 285 kts 320°
2026-05-05 10:56 51.36352 6.46489 10715 ft 288 kts 320°
2026-05-05 10:56 51.37892 6.44452 11438 ft 291 kts 314°
2026-05-05 10:56 51.39022 6.41789 12172 ft 292 kts 290°
2026-05-05 10:57 51.39392 6.38603 12844 ft 294 kts 267°
2026-05-05 10:57 51.38946 6.35415 13490 ft 297 kts 244°
2026-05-05 10:57 51.37727 6.32739 14122 ft 301 kts 221°
2026-05-05 10:57 51.36025 6.30733 14716 ft 306 kts 216°
2026-05-05 10:58 51.34270 6.28765 15319 ft 310 kts 216°
2026-05-05 10:58 51.32422 6.26942 15894 ft 316 kts 208°
2026-05-05 10:58 51.30569 6.24950 16154 ft 329 kts 228°
2026-05-05 10:58 51.29424 6.21765 16442 ft 339 kts 255°
2026-05-05 10:59 51.29196 6.17970 16730 ft 351 kts 271°
2026-05-05 10:59 51.29233 6.14011 17145 ft 359 kts 270°
2026-05-05 10:59 51.29226 6.11363 17498 ft 361 kts 269°
2026-05-05 10:59 51.29167 6.06024 18247 ft 365 kts 269°
2026-05-05 11:00 51.29101 6.01962 18788 ft 368 kts 268°